Hourly Data Report for October 31, 2015

All times are specified in Local Standard Time (LST). Add 1 hour to adjust for Daylight Saving Time where and when it is observed.

MONCTON INTL A
NEW BRUNSWICK

46°06'44.000" N
64°40'43.000" W
70.70 m
8103201
71705
YQM

Download Data

Hourly Data (October 2015)
Hourly Data Report for October 31, 2015
Temp Definition
°C
Dew Point Temp Definition
°C
Rel Hum Definition
%
Wind Dir Definition
10's deg

Wind Spd Definition
km/h
Visibility Definition
km
Stn Press Definition
kPa
Hmdx Definition


Wind Chill Definition


Weather Definition


TIME
00:00 Legend Double Dagger 1.5 -6.1 57 26 30 24.1 100.09     LegendNANA
01:00 Legend Double Dagger 0.9 -6.2 59 26 23 24.1 100.21     LegendNANA
02:00 Legend Double Dagger 0.5 -6.4 60 27 26 24.1 100.27     Clear
03:00 Legend Double Dagger 0.0 -6.2 63 26 23 24.1 100.31   -6 LegendNANA
04:00 Legend Double Dagger -0.3 -6.5 63 25 23 24.1 100.38   -6 LegendNANA
05:00 Legend Double Dagger -0.6 -6.4 65 25 22 24.1 100.50   -6 Clear
06:00 Legend Double Dagger -1.5 -6.1 71 24 15 24.1 100.56   -6 LegendNANA
07:00 Legend Double Dagger -1.5 -5.9 72 25 17 24.1 100.66   -7 LegendNANA
08:00 Legend Double Dagger -0.4 -5.8 67 25 16 24.1 100.76   -5 Mostly Cloudy
09:00 Legend Double Dagger 1.3 -5.6 60 25 16 24.1 100.83     LegendNANA
10:00 Legend Double Dagger 2.8 -4.9 57 25 21 24.1 100.86     LegendNANA
11:00 Legend Double Dagger 4.2 -4.8 52 25 20 24.1 100.88     Clear
12:00 Legend Double Dagger 5.5 -4.9 47 25 25 24.1 100.88     LegendNANA
13:00 Legend Double Dagger 6.4 -4.4 46 26 20 24.1 100.84     LegendNANA
14:00 Legend Double Dagger 7.7 -4.7 41 25 18 24.1 100.87     Mainly Clear
15:00 Legend Double Dagger 8.0 -4.8 40 24 25 24.1 100.96     LegendNANA
16:00 Legend Double Dagger 7.3 -4.5 43 25 18 24.1 100.97     LegendNANA
17:00 Legend Double Dagger 6.0 -3.6 50 23 16 24.1 100.96     Cloudy
18:00 Legend Double Dagger 5.1 -3.2 55 24 15 24.1 101.01     LegendNANA
19:00 Legend Double Dagger 4.5 -3.1 58 24 9 24.1 101.07     LegendNANA
20:00 Legend Double Dagger 4.0 -2.6 62 24 10 24.1 101.04     Cloudy
21:00 Legend Double Dagger 4.1 -2.5 62 22 13 24.1 101.08     LegendNANA
22:00 Legend Double Dagger 3.8 -2.4 64 23 14 24.1 101.09     LegendNANA
23:00 Legend Double Dagger 3.4 -2.6 65 25 12 24.1 101.05     Cloudy

Notes on Data Quality.

Legend

  • E = Estimated
  • M = Missing
  • NA = Not Available
  • ‡ = Partner data that is not subject to review by the National Climate Archives
Date modified: